Year,Month,Day,Hour,Minute,Value (Times are PST for temperature in C)
2014,04,12,00,00,8.30
2014,04,12,00,01,8.30
2014,04,12,00,02,8.30
2014,04,12,00,03,8.30
2014,04,12,00,04,8.30
2014,04,12,00,05,8.30
2014,04,12,00,06,8.20
2014,04,12,00,07,8.20
2014,04,12,00,08,8.20
2014,04,12,00,09,8.20
2014,04,12,00,10,8.20
2014,04,12,00,11,8.20
2014,04,12,00,12,8.20
2014,04,12,00,13,8.20
2014,04,12,00,14,8.20
2014,04,12,00,15,8.20
2014,04,12,00,16,8.20
2014,04,12,00,17,8.20
2014,04,12,00,18,8.20
2014,04,12,00,19,8.20
2014,04,12,00,20,8.20
2014,04,12,00,21,8.10
2014,04,12,00,22,8.10
2014,04,12,00,23,8.10
2014,04,12,00,24,8.10
2014,04,12,00,25,8.10
2014,04,12,00,26,8.10
2014,04,12,00,27,8.10
2014,04,12,00,28,8.10
2014,04,12,00,29,8.10
2014,04,12,00,30,8.10
2014,04,12,00,31,8.10
2014,04,12,00,32,8.00
2014,04,12,00,33,8.00
2014,04,12,00,34,8.00
2014,04,12,00,35,8.00
2014,04,12,00,36,8.00
2014,04,12,00,37,8.00
2014,04,12,00,38,8.00
2014,04,12,00,39,8.00
2014,04,12,00,40,8.00
2014,04,12,00,41,8.00
2014,04,12,00,42,8.00
2014,04,12,00,43,8.00
2014,04,12,00,44,8.00
2014,04,12,00,45,8.00
2014,04,12,00,46,8.00
2014,04,12,00,47,8.00
2014,04,12,00,48,8.00
2014,04,12,00,49,8.00
2014,04,12,00,50,8.00
2014,04,12,00,51,8.10
2014,04,12,00,52,8.10
2014,04,12,00,53,8.10
2014,04,12,00,54,8.10
2014,04,12,00,55,8.10
2014,04,12,00,56,8.10
2014,04,12,00,57,8.10
2014,04,12,00,58,8.10
2014,04,12,00,59,8.10
2014,04,12,01,00,8.10
2014,04,12,01,01,8.10
2014,04,12,01,02,8.20
2014,04,12,01,03,8.20
2014,04,12,01,04,8.20
2014,04,12,01,05,8.20
2014,04,12,01,06,8.20
2014,04,12,01,07,8.20
2014,04,12,01,08,8.20
2014,04,12,01,09,8.20
2014,04,12,01,10,8.20
2014,04,12,01,11,8.20
2014,04,12,01,12,8.20
2014,04,12,01,13,8.20
2014,04,12,01,14,8.20
2014,04,12,01,15,8.20
2014,04,12,01,16,8.20
2014,04,12,01,17,8.20
2014,04,12,01,18,8.20
2014,04,12,01,19,8.20
2014,04,12,01,20,8.20
2014,04,12,01,21,8.20
2014,04,12,01,22,8.20
2014,04,12,01,23,8.20
2014,04,12,01,24,8.20
2014,04,12,01,25,8.20
2014,04,12,01,26,8.20
2014,04,12,01,27,8.20
2014,04,12,01,28,8.20
2014,04,12,01,29,8.20
2014,04,12,01,30,8.20
2014,04,12,01,31,8.20
2014,04,12,01,32,8.20
2014,04,12,01,33,8.20
2014,04,12,01,34,8.20
2014,04,12,01,35,8.20
2014,04,12,01,36,8.20
2014,04,12,01,37,8.20
2014,04,12,01,38,8.20
2014,04,12,01,39,8.20
2014,04,12,01,40,8.20
2014,04,12,01,41,8.20
2014,04,12,01,42,8.20
2014,04,12,01,43,8.20
2014,04,12,01,44,8.20
2014,04,12,01,45,8.20
2014,04,12,01,46,8.20
2014,04,12,01,47,8.20
2014,04,12,01,48,8.20
2014,04,12,01,49,8.20
2014,04,12,01,50,8.20
2014,04,12,01,51,8.20
2014,04,12,01,52,8.20
2014,04,12,01,53,8.20
2014,04,12,01,54,8.20
2014,04,12,01,55,8.20
2014,04,12,01,56,8.20
2014,04,12,01,57,8.20
2014,04,12,01,58,8.20
2014,04,12,01,59,8.20
2014,04,12,02,00,8.20
2014,04,12,02,01,8.20
2014,04,12,02,02,8.30
2014,04,12,02,03,8.30
2014,04,12,02,04,8.30
2014,04,12,02,05,8.30
2014,04,12,02,06,8.30
2014,04,12,02,07,8.30
2014,04,12,02,08,8.30
2014,04,12,02,09,8.30
2014,04,12,02,10,8.30
2014,04,12,02,11,8.30
2014,04,12,02,12,8.30
2014,04,12,02,13,8.30
2014,04,12,02,14,8.30
2014,04,12,02,15,8.30
2014,04,12,02,16,8.30
2014,04,12,02,17,8.30
2014,04,12,02,18,8.30
2014,04,12,02,19,8.30
2014,04,12,02,20,8.30
2014,04,12,02,21,8.30
2014,04,12,02,22,8.30
2014,04,12,02,23,8.30
2014,04,12,02,24,8.30
2014,04,12,02,25,8.20
2014,04,12,02,26,8.20
2014,04,12,02,27,8.20
2014,04,12,02,28,8.20
2014,04,12,02,29,8.20
2014,04,12,02,30,8.20
2014,04,12,02,31,8.20
2014,04,12,02,32,8.20
2014,04,12,02,33,8.20
2014,04,12,02,34,8.20
2014,04,12,02,35,8.20
2014,04,12,02,36,8.20
2014,04,12,02,37,8.20
2014,04,12,02,38,8.20
2014,04,12,02,39,8.20
2014,04,12,02,40,8.20
2014,04,12,02,41,8.20
2014,04,12,02,42,8.20
2014,04,12,02,43,8.10
2014,04,12,02,44,8.10
2014,04,12,02,45,8.10
2014,04,12,02,46,8.10
2014,04,12,02,47,8.10
2014,04,12,02,48,8.10
2014,04,12,02,49,8.10
2014,04,12,02,50,8.10
2014,04,12,02,51,8.10
2014,04,12,02,52,8.10
2014,04,12,02,53,8.10
2014,04,12,02,54,8.10
2014,04,12,02,55,8.10
2014,04,12,02,56,8.20
2014,04,12,02,57,8.20
2014,04,12,02,58,8.20
2014,04,12,02,59,8.20
2014,04,12,03,00,8.20
2014,04,12,03,01,8.20
2014,04,12,03,02,8.20
2014,04,12,03,03,8.20
2014,04,12,03,04,8.20
2014,04,12,03,05,8.20
2014,04,12,03,06,8.20
2014,04,12,03,07,8.20
2014,04,12,03,08,8.20
2014,04,12,03,09,8.20
2014,04,12,03,10,8.20
2014,04,12,03,11,8.20
2014,04,12,03,12,8.20
2014,04,12,03,13,8.20
2014,04,12,03,14,8.20
2014,04,12,03,15,8.20
2014,04,12,03,16,8.20
2014,04,12,03,17,8.20
2014,04,12,03,18,8.20
2014,04,12,03,19,8.20
2014,04,12,03,20,8.20
2014,04,12,03,21,8.20
2014,04,12,03,22,8.20
2014,04,12,03,23,8.20
2014,04,12,03,24,8.20
2014,04,12,03,25,8.20
2014,04,12,03,26,8.20
2014,04,12,03,27,8.10
2014,04,12,03,28,8.10
2014,04,12,03,29,8.10
2014,04,12,03,30,8.10
2014,04,12,03,31,8.10
2014,04,12,03,32,8.10
2014,04,12,03,33,8.10
2014,04,12,03,34,8.10
2014,04,12,03,35,8.10
2014,04,12,03,36,8.10
2014,04,12,03,37,8.10
2014,04,12,03,38,8.10
2014,04,12,03,39,8.10
2014,04,12,03,40,8.10
2014,04,12,03,41,8.10
2014,04,12,03,42,8.20
2014,04,12,03,43,8.20
2014,04,12,03,44,8.20
2014,04,12,03,45,8.20
2014,04,12,03,46,8.20
2014,04,12,03,47,8.20
2014,04,12,03,48,8.10
2014,04,12,03,49,8.10
2014,04,12,03,50,8.10
2014,04,12,03,51,8.10
2014,04,12,03,52,8.10
2014,04,12,03,53,8.10
2014,04,12,03,54,8.10
2014,04,12,03,55,8.10
2014,04,12,03,56,8.10
2014,04,12,03,57,8.10
2014,04,12,03,58,8.10
2014,04,12,03,59,8.10
2014,04,12,04,00,8.10
2014,04,12,04,01,8.10
2014,04,12,04,02,8.10
2014,04,12,04,03,8.10
2014,04,12,04,04,8.10
2014,04,12,04,05,8.10
2014,04,12,04,06,8.10
2014,04,12,04,07,8.10
2014,04,12,04,08,8.10
2014,04,12,04,09,8.10
2014,04,12,04,10,8.10
2014,04,12,04,11,8.10
2014,04,12,04,12,8.10
2014,04,12,04,13,8.10
2014,04,12,04,14,8.10
2014,04,12,04,15,8.10
2014,04,12,04,16,8.10
2014,04,12,04,17,8.10
2014,04,12,04,18,8.10
2014,04,12,04,19,8.10
2014,04,12,04,20,8.10
2014,04,12,04,21,8.10
2014,04,12,04,22,8.10
2014,04,12,04,23,8.10
2014,04,12,04,24,8.10
2014,04,12,04,25,8.10
2014,04,12,04,26,8.10
2014,04,12,04,27,8.00
2014,04,12,04,28,8.00
2014,04,12,04,29,8.00
2014,04,12,04,30,8.00
2014,04,12,04,31,8.00
2014,04,12,04,32,8.00
2014,04,12,04,33,8.00
2014,04,12,04,34,8.00
2014,04,12,04,35,8.00
2014,04,12,04,36,8.00
2014,04,12,04,37,8.00
2014,04,12,04,38,8.00
2014,04,12,04,39,8.00
2014,04,12,04,40,8.00
2014,04,12,04,41,8.00
2014,04,12,04,42,8.00
2014,04,12,04,43,8.00
2014,04,12,04,44,8.00
2014,04,12,04,45,8.00
2014,04,12,04,46,8.00
2014,04,12,04,47,8.00
2014,04,12,04,48,8.00
2014,04,12,04,49,8.00
2014,04,12,04,50,8.00
2014,04,12,04,51,7.90
2014,04,12,04,52,7.90
2014,04,12,04,53,7.90
2014,04,12,04,54,7.90
2014,04,12,04,55,7.90
2014,04,12,04,56,7.90
2014,04,12,04,57,7.90
2014,04,12,04,58,7.90
2014,04,12,04,59,7.90
2014,04,12,05,00,7.80
2014,04,12,05,01,7.80
2014,04,12,05,02,7.80
2014,04,12,05,03,7.80
2014,04,12,05,04,7.80
2014,04,12,05,05,7.80
2014,04,12,05,06,7.80
2014,04,12,05,07,7.80
2014,04,12,05,08,7.80
2014,04,12,05,09,7.80
2014,04,12,05,10,7.80
2014,04,12,05,11,7.70
2014,04,12,05,12,7.70
2014,04,12,05,13,7.70
2014,04,12,05,14,7.70
2014,04,12,05,15,7.70
2014,04,12,05,16,7.70
2014,04,12,05,17,7.70
2014,04,12,05,18,7.60
2014,04,12,05,19,7.60
2014,04,12,05,20,7.60
2014,04,12,05,21,7.50
2014,04,12,05,22,7.50
2014,04,12,05,23,7.50
2014,04,12,05,24,7.40
2014,04,12,05,25,7.40
2014,04,12,05,26,7.30
2014,04,12,05,27,7.30
2014,04,12,05,28,7.30
2014,04,12,05,29,7.30
2014,04,12,05,30,7.30
2014,04,12,05,31,7.30
2014,04,12,05,32,7.30
2014,04,12,05,33,7.30
2014,04,12,05,34,7.40
2014,04,12,05,35,7.40
2014,04,12,05,36,7.40
2014,04,12,05,37,7.40
2014,04,12,05,38,7.40
2014,04,12,05,39,7.40
2014,04,12,05,40,7.40
2014,04,12,05,41,7.40
2014,04,12,05,42,7.40
2014,04,12,05,43,7.40
2014,04,12,05,44,7.40
2014,04,12,05,45,7.40
2014,04,12,05,46,7.40
2014,04,12,05,47,7.40
2014,04,12,05,48,7.30
2014,04,12,05,49,7.30
2014,04,12,05,50,7.30
2014,04,12,05,51,7.30
2014,04,12,05,52,7.30
2014,04,12,05,53,7.30
2014,04,12,05,54,7.30
2014,04,12,05,55,7.30
2014,04,12,05,56,7.30
2014,04,12,05,57,7.30
2014,04,12,05,58,7.30
2014,04,12,05,59,7.30
2014,04,12,06,00,7.30
2014,04,12,06,01,7.30
2014,04,12,06,02,7.30
2014,04,12,06,03,7.30
2014,04,12,06,04,7.30
2014,04,12,06,05,7.30
2014,04,12,06,06,7.30
2014,04,12,06,07,7.30
2014,04,12,06,08,7.30
2014,04,12,06,09,7.30
2014,04,12,06,10,7.30
2014,04,12,06,11,7.30
2014,04,12,06,12,7.30
2014,04,12,06,13,7.30
2014,04,12,06,14,7.30
2014,04,12,06,15,7.30
2014,04,12,06,16,7.30
2014,04,12,06,17,7.30
2014,04,12,06,18,7.30
2014,04,12,06,19,7.30
2014,04,12,06,20,7.30
2014,04,12,06,21,7.30
2014,04,12,06,22,7.30
2014,04,12,06,23,7.30
2014,04,12,06,24,7.30
2014,04,12,06,25,7.30
2014,04,12,06,26,7.30
2014,04,12,06,27,7.30
2014,04,12,06,28,7.30
2014,04,12,06,29,7.30
2014,04,12,06,30,7.30
2014,04,12,06,31,7.20
2014,04,12,06,32,7.20
2014,04,12,06,33,7.20
2014,04,12,06,34,7.20
2014,04,12,06,35,7.20
2014,04,12,06,36,7.20
2014,04,12,06,37,7.10
2014,04,12,06,38,7.10
2014,04,12,06,39,7.10
2014,04,12,06,40,7.10
2014,04,12,06,41,7.10
2014,04,12,06,42,7.10
2014,04,12,06,43,7.10
2014,04,12,06,44,7.20
2014,04,12,06,45,7.20
2014,04,12,06,46,7.20
2014,04,12,06,47,7.20
2014,04,12,06,48,7.30
2014,04,12,06,49,7.30
2014,04,12,06,50,7.30
2014,04,12,06,51,7.30
2014,04,12,06,52,7.30
2014,04,12,06,53,7.30
2014,04,12,06,54,7.30
2014,04,12,06,55,7.30
2014,04,12,06,56,7.30
2014,04,12,06,57,7.30
2014,04,12,06,58,7.30
2014,04,12,06,59,7.30
2014,04,12,07,00,7.30
2014,04,12,07,01,7.30
2014,04,12,07,02,7.30
2014,04,12,07,03,7.40
2014,04,12,07,04,7.40
2014,04,12,07,05,7.40
2014,04,12,07,06,7.40
2014,04,12,07,07,7.40
2014,04,12,07,08,7.40
2014,04,12,07,09,7.30
2014,04,12,07,10,7.30
2014,04,12,07,11,7.30
2014,04,12,07,12,7.30
2014,04,12,07,13,7.40
2014,04,12,07,14,7.40
2014,04,12,07,15,7.40
2014,04,12,07,16,7.40
2014,04,12,07,17,7.40
2014,04,12,07,18,7.40
2014,04,12,07,19,7.50
2014,04,12,07,20,7.50
2014,04,12,07,21,7.50
2014,04,12,07,22,7.50
2014,04,12,07,23,7.50
2014,04,12,07,24,7.50
2014,04,12,07,25,7.50
2014,04,12,07,26,7.50
2014,04,12,07,27,7.60
2014,04,12,07,28,7.60
2014,04,12,07,29,7.60
2014,04,12,07,30,7.60
2014,04,12,07,31,7.60
2014,04,12,07,32,7.60
2014,04,12,07,33,7.60
2014,04,12,07,34,7.60
2014,04,12,07,35,7.70
2014,04,12,07,36,7.70
2014,04,12,07,37,7.70
2014,04,12,07,38,7.70
2014,04,12,07,39,7.80
2014,04,12,07,40,7.80
2014,04,12,07,41,7.80
2014,04,12,07,42,7.80
2014,04,12,07,43,7.80
2014,04,12,07,44,7.80
2014,04,12,07,45,7.80
2014,04,12,07,46,7.90
2014,04,12,07,47,7.90
2014,04,12,07,48,7.90
2014,04,12,07,49,8.00
2014,04,12,07,50,8.00
2014,04,12,07,51,8.00
2014,04,12,07,52,8.00
2014,04,12,07,53,8.00
2014,04,12,07,54,8.00
2014,04,12,07,55,8.00
2014,04,12,07,56,8.00
2014,04,12,07,57,8.00
2014,04,12,07,58,8.00
2014,04,12,07,59,8.00
2014,04,12,08,00,8.10
2014,04,12,08,01,8.10
2014,04,12,08,02,8.10
2014,04,12,08,03,8.20
2014,04,12,08,04,8.20
2014,04,12,08,05,8.20
2014,04,12,08,06,8.20
2014,04,12,08,07,8.20
2014,04,12,08,08,8.30
2014,04,12,08,09,8.30
2014,04,12,08,10,8.30
2014,04,12,08,11,8.30
2014,04,12,08,12,8.30
2014,04,12,08,13,8.30
2014,04,12,08,14,8.30
2014,04,12,08,15,8.30
2014,04,12,08,16,8.40
2014,04,12,08,17,8.40
2014,04,12,08,18,8.50
2014,04,12,08,19,8.50
2014,04,12,08,20,8.60
2014,04,12,08,21,8.60
2014,04,12,08,22,8.70
2014,04,12,08,23,8.70
2014,04,12,08,24,8.80
2014,04,12,08,25,8.90
2014,04,12,08,26,8.90
2014,04,12,08,27,9.00
2014,04,12,08,28,9.10
2014,04,12,08,29,9.10
2014,04,12,08,30,9.10
2014,04,12,08,31,9.10
2014,04,12,08,32,9.10
2014,04,12,08,33,9.10
2014,04,12,08,34,9.10
2014,04,12,08,35,9.10
2014,04,12,08,36,9.10
2014,04,12,08,37,9.10
2014,04,12,08,38,9.20
2014,04,12,08,39,9.20
2014,04,12,08,40,9.20
2014,04,12,08,41,9.30
2014,04,12,08,42,9.30
2014,04,12,08,43,9.40
2014,04,12,08,44,9.50
2014,04,12,08,45,9.60
2014,04,12,08,46,9.70
2014,04,12,08,47,9.70
2014,04,12,08,48,9.70
2014,04,12,08,49,9.80
2014,04,12,08,50,9.80
2014,04,12,08,51,9.80
2014,04,12,08,52,9.80
2014,04,12,08,53,9.80
2014,04,12,08,54,9.90
2014,04,12,08,55,9.80
2014,04,12,08,56,9.80
2014,04,12,08,57,9.80
2014,04,12,08,58,9.80
2014,04,12,08,59,9.80
2014,04,12,09,00,9.80
2014,04,12,09,01,9.90
2014,04,12,09,02,9.80
2014,04,12,09,03,9.70
2014,04,12,09,04,9.70
2014,04,12,09,05,9.60
2014,04,12,09,06,9.60
2014,04,12,09,07,9.60
2014,04,12,09,08,9.60
2014,04,12,09,09,9.60
2014,04,12,09,10,9.60
2014,04,12,09,11,9.60
2014,04,12,09,12,9.70
2014,04,12,09,13,9.70
2014,04,12,09,14,9.70
2014,04,12,09,15,9.70
2014,04,12,09,16,9.70
2014,04,12,09,17,9.70
2014,04,12,09,18,9.70
2014,04,12,09,19,9.70
2014,04,12,09,20,9.70
2014,04,12,09,21,9.80
2014,04,12,09,22,9.70
2014,04,12,09,23,9.70
2014,04,12,09,24,9.70
2014,04,12,09,25,9.70
2014,04,12,09,26,9.80
2014,04,12,09,27,9.80
2014,04,12,09,28,9.80
2014,04,12,09,29,9.80
2014,04,12,09,30,9.80
2014,04,12,09,31,9.90
2014,04,12,09,32,9.90
2014,04,12,09,33,9.90
2014,04,12,09,34,10.00
2014,04,12,09,35,10.20
2014,04,12,09,36,10.20
2014,04,12,09,37,10.30
2014,04,12,09,38,10.40
2014,04,12,09,39,10.40
2014,04,12,09,40,10.50
2014,04,12,09,41,10.60
2014,04,12,09,42,10.70
2014,04,12,09,43,10.60
2014,04,12,09,44,10.60
2014,04,12,09,45,10.40
2014,04,12,09,46,10.30
2014,04,12,09,47,10.20
2014,04,12,09,48,10.10
2014,04,12,09,49,10.00
2014,04,12,09,50,9.90
2014,04,12,09,51,9.90
2014,04,12,09,52,9.90
2014,04,12,09,53,9.90
2014,04,12,09,54,9.90
2014,04,12,09,55,9.90
2014,04,12,09,56,10.00
2014,04,12,09,57,10.10
2014,04,12,09,58,10.10
2014,04,12,09,59,10.10
2014,04,12,10,00,10.10
2014,04,12,10,01,10.10
2014,04,12,10,02,10.00
2014,04,12,10,03,9.90
2014,04,12,10,04,9.90
2014,04,12,10,05,9.90
2014,04,12,10,06,9.80
2014,04,12,10,07,9.80
2014,04,12,10,08,9.80
2014,04,12,10,09,9.80
2014,04,12,10,10,9.80
2014,04,12,10,11,9.90
2014,04,12,10,12,9.90
2014,04,12,10,13,9.90
2014,04,12,10,14,9.90
2014,04,12,10,15,10.00
2014,04,12,10,16,10.10
2014,04,12,10,17,10.10
2014,04,12,10,18,10.20
2014,04,12,10,19,10.20
2014,04,12,10,20,10.30
2014,04,12,10,21,10.30
2014,04,12,10,22,10.30
2014,04,12,10,23,10.20
2014,04,12,10,24,10.20
2014,04,12,10,25,10.20
2014,04,12,10,26,10.20
2014,04,12,10,27,10.20
2014,04,12,10,28,10.20
2014,04,12,10,29,10.20
2014,04,12,10,30,10.30
2014,04,12,10,31,10.20
2014,04,12,10,32,10.20
2014,04,12,10,33,10.30
2014,04,12,10,34,10.30
2014,04,12,10,35,10.40
2014,04,12,10,36,10.30
2014,04,12,10,37,10.30
2014,04,12,10,38,10.30
2014,04,12,10,39,10.40
2014,04,12,10,40,10.40
2014,04,12,10,41,10.40
2014,04,12,10,42,10.40
2014,04,12,10,43,10.40
2014,04,12,10,44,10.50
2014,04,12,10,45,10.60
2014,04,12,10,46,10.60
2014,04,12,10,47,10.60
2014,04,12,10,48,10.60
2014,04,12,10,49,10.50
2014,04,12,10,50,10.40
2014,04,12,10,51,10.50
2014,04,12,10,52,10.60
2014,04,12,10,53,10.60
2014,04,12,10,54,10.60
2014,04,12,10,55,10.70
2014,04,12,10,56,10.70
2014,04,12,10,57,10.70
2014,04,12,10,58,10.70
2014,04,12,10,59,10.70
2014,04,12,11,00,10.60
2014,04,12,11,01,10.60
2014,04,12,11,02,10.60
2014,04,12,11,03,10.60
2014,04,12,11,04,10.60
2014,04,12,11,05,10.60
2014,04,12,11,06,10.70
2014,04,12,11,07,10.80
2014,04,12,11,08,10.90
2014,04,12,11,09,10.80
2014,04,12,11,10,10.70
2014,04,12,11,11,10.60
2014,04,12,11,12,10.60
2014,04,12,11,13,10.60
2014,04,12,11,14,10.40
2014,04,12,11,15,10.30
2014,04,12,11,16,10.30
2014,04,12,11,17,10.20
2014,04,12,11,18,10.10
2014,04,12,11,19,10.10
2014,04,12,11,20,10.10
2014,04,12,11,21,10.10
2014,04,12,11,22,10.10
2014,04,12,11,23,10.10
2014,04,12,11,24,10.10
2014,04,12,11,25,10.10
2014,04,12,11,26,10.10
2014,04,12,11,27,10.10
2014,04,12,11,28,10.10
2014,04,12,11,29,10.10
2014,04,12,11,30,10.10
2014,04,12,11,31,10.10
2014,04,12,11,32,10.10
2014,04,12,11,33,10.20
2014,04,12,11,34,10.20
2014,04,12,11,35,10.20
2014,04,12,11,36,10.10
2014,04,12,11,37,10.10
2014,04,12,11,38,10.20
2014,04,12,11,39,10.10
2014,04,12,11,40,10.20
2014,04,12,11,41,10.20
2014,04,12,11,42,10.30
2014,04,12,11,43,10.40
2014,04,12,11,44,10.50
2014,04,12,11,45,10.60
2014,04,12,11,46,10.60
2014,04,12,11,47,10.60
2014,04,12,11,48,10.60
2014,04,12,11,49,10.70
2014,04,12,11,50,10.70
2014,04,12,11,51,10.70
2014,04,12,11,52,10.80
2014,04,12,11,53,10.90
2014,04,12,11,54,10.90
2014,04,12,11,55,10.90
2014,04,12,11,56,10.90
2014,04,12,11,57,11.00
2014,04,12,11,58,11.00
2014,04,12,11,59,11.00
2014,04,12,12,00,11.00
2014,04,12,12,01,11.10
2014,04,12,12,02,11.10
2014,04,12,12,03,11.10
2014,04,12,12,04,11.20
2014,04,12,12,05,11.20
2014,04,12,12,06,11.10
2014,04,12,12,07,11.10
2014,04,12,12,08,11.20
2014,04,12,12,09,11.30
2014,04,12,12,10,11.30
2014,04,12,12,11,11.40
2014,04,12,12,12,11.20
2014,04,12,12,13,11.10
2014,04,12,12,14,11.00
2014,04,12,12,15,10.90
2014,04,12,12,16,10.90
2014,04,12,12,17,10.90
2014,04,12,12,18,10.90
2014,04,12,12,19,10.90
2014,04,12,12,20,10.90
2014,04,12,12,21,10.80
2014,04,12,12,22,10.80
2014,04,12,12,23,10.70
2014,04,12,12,24,10.70
2014,04,12,12,25,10.60
2014,04,12,12,26,10.60
2014,04,12,12,27,10.50
2014,04,12,12,28,10.50
2014,04,12,12,29,10.60
2014,04,12,12,30,10.70
2014,04,12,12,31,10.80
2014,04,12,12,32,10.80
2014,04,12,12,33,10.70
2014,04,12,12,34,10.70
2014,04,12,12,35,10.70
2014,04,12,12,36,10.70
2014,04,12,12,37,10.70
2014,04,12,12,38,10.90
2014,04,12,12,39,10.90
2014,04,12,12,40,10.90
2014,04,12,12,41,11.00
2014,04,12,12,42,11.10
2014,04,12,12,43,11.10
2014,04,12,12,44,11.10
2014,04,12,12,45,11.00
2014,04,12,12,46,10.90
2014,04,12,12,47,10.90
2014,04,12,12,48,10.90
2014,04,12,12,49,10.90
2014,04,12,12,50,11.00
2014,04,12,12,51,11.00
2014,04,12,12,52,10.90
2014,04,12,12,53,10.90
2014,04,12,12,54,10.90
2014,04,12,12,55,10.90
2014,04,12,12,56,10.90
2014,04,12,12,57,11.00
2014,04,12,12,58,11.10
2014,04,12,12,59,11.10
2014,04,12,13,00,11.20
2014,04,12,13,01,11.40
2014,04,12,13,02,11.60
2014,04,12,13,03,11.80
2014,04,12,13,04,11.80
2014,04,12,13,05,11.90
2014,04,12,13,06,11.80
2014,04,12,13,07,11.80
2014,04,12,13,08,11.80
2014,04,12,13,09,11.80
2014,04,12,13,10,11.80
2014,04,12,13,11,11.80
2014,04,12,13,12,11.70
2014,04,12,13,13,11.70
2014,04,12,13,14,11.70
2014,04,12,13,15,11.80
2014,04,12,13,16,11.80
2014,04,12,13,17,11.90
2014,04,12,13,18,12.00
2014,04,12,13,19,12.10
2014,04,12,13,20,12.30
2014,04,12,13,21,12.30
2014,04,12,13,22,12.30
2014,04,12,13,23,12.30
2014,04,12,13,24,12.20
2014,04,12,13,25,12.20
2014,04,12,13,26,12.30
2014,04,12,13,27,12.30
2014,04,12,13,28,12.30
2014,04,12,13,29,12.30
2014,04,12,13,30,12.20
2014,04,12,13,31,12.10
2014,04,12,13,32,12.00
2014,04,12,13,33,11.90
2014,04,12,13,34,11.90
2014,04,12,13,35,11.90
2014,04,12,13,36,11.90
2014,04,12,13,37,11.90
2014,04,12,13,38,11.90
2014,04,12,13,39,11.80
2014,04,12,13,40,11.80
2014,04,12,13,41,11.90
2014,04,12,13,42,12.00
2014,04,12,13,43,12.10
2014,04,12,13,44,12.20
2014,04,12,13,45,12.30
2014,04,12,13,46,12.40
2014,04,12,13,47,12.30
2014,04,12,13,48,12.30
2014,04,12,13,49,12.20
2014,04,12,13,50,12.20
2014,04,12,13,51,12.10
2014,04,12,13,52,12.10
2014,04,12,13,53,12.20
2014,04,12,13,54,12.30
2014,04,12,13,55,12.40
2014,04,12,13,56,12.40
2014,04,12,13,57,12.50
2014,04,12,13,58,12.50
2014,04,12,13,59,12.40
2014,04,12,14,00,12.30
2014,04,12,14,01,12.40
2014,04,12,14,02,12.30
2014,04,12,14,03,12.30
2014,04,12,14,04,12.30
2014,04,12,14,05,12.30
2014,04,12,14,06,12.30
2014,04,12,14,07,12.30
2014,04,12,14,08,12.20
2014,04,12,14,09,12.20
2014,04,12,14,10,12.30
2014,04,12,14,11,12.30
2014,04,12,14,12,12.40
2014,04,12,14,13,12.50
2014,04,12,14,14,12.70
2014,04,12,14,15,12.80
2014,04,12,14,16,12.90
2014,04,12,14,17,13.00
2014,04,12,14,18,13.00
2014,04,12,14,19,13.00
2014,04,12,14,20,13.10
2014,04,12,14,21,13.10
2014,04,12,14,22,13.20
2014,04,12,14,23,13.10
2014,04,12,14,24,13.10
2014,04,12,14,25,13.20
2014,04,12,14,26,13.20
2014,04,12,14,27,13.10
2014,04,12,14,28,13.10
2014,04,12,14,29,13.10
2014,04,12,14,30,13.10
2014,04,12,14,31,13.20
2014,04,12,14,32,13.30
2014,04,12,14,33,13.30
2014,04,12,14,34,13.40
2014,04,12,14,35,13.50
2014,04,12,14,36,13.60
2014,04,12,14,37,13.60
2014,04,12,14,38,13.50
2014,04,12,14,39,13.40
2014,04,12,14,40,13.30
2014,04,12,14,41,13.30
2014,04,12,14,42,13.30
2014,04,12,14,43,13.30
2014,04,12,14,44,13.30
2014,04,12,14,45,13.40
2014,04,12,14,46,13.50
2014,04,12,14,47,13.50
2014,04,12,14,48,13.50
2014,04,12,14,49,13.50
2014,04,12,14,50,13.60
2014,04,12,14,51,13.60
2014,04,12,14,52,13.70
2014,04,12,14,53,13.70
2014,04,12,14,54,13.70
2014,04,12,14,55,13.70
2014,04,12,14,56,13.70
2014,04,12,14,57,13.70
2014,04,12,14,58,13.70
2014,04,12,14,59,13.70
2014,04,12,15,00,13.80
2014,04,12,15,01,13.80
2014,04,12,15,02,13.90
2014,04,12,15,03,14.00
2014,04,12,15,04,14.00
2014,04,12,15,05,14.00
2014,04,12,15,06,14.00
2014,04,12,15,07,14.00
2014,04,12,15,08,14.00
2014,04,12,15,09,14.00
2014,04,12,15,10,13.90
2014,04,12,15,11,13.90
2014,04,12,15,12,14.00
2014,04,12,15,13,14.00
2014,04,12,15,14,14.10
2014,04,12,15,15,14.00
2014,04,12,15,16,13.90
2014,04,12,15,17,13.80
2014,04,12,15,18,13.80
2014,04,12,15,19,13.80
2014,04,12,15,20,13.90
2014,04,12,15,21,14.00
2014,04,12,15,22,14.00
2014,04,12,15,23,14.10
2014,04,12,15,24,14.00
2014,04,12,15,25,14.00
2014,04,12,15,26,13.90
2014,04,12,15,27,13.80
2014,04,12,15,28,13.70
2014,04,12,15,29,13.60
2014,04,12,15,30,13.60
2014,04,12,15,31,13.60
2014,04,12,15,32,13.60
2014,04,12,15,33,13.60
2014,04,12,15,34,13.70
2014,04,12,15,35,13.70
2014,04,12,15,36,13.80
2014,04,12,15,37,13.90
2014,04,12,15,38,14.00
2014,04,12,15,39,14.00
2014,04,12,15,40,14.10
2014,04,12,15,41,14.10
2014,04,12,15,42,14.10
2014,04,12,15,43,14.00
2014,04,12,15,44,13.90
2014,04,12,15,45,13.90
2014,04,12,15,46,13.80
2014,04,12,15,47,13.80
2014,04,12,15,48,13.90
2014,04,12,15,49,13.90
2014,04,12,15,50,14.00
2014,04,12,15,51,14.00
2014,04,12,15,52,14.00
2014,04,12,15,53,14.00
2014,04,12,15,54,14.10
2014,04,12,15,55,14.10
2014,04,12,15,56,14.10
2014,04,12,15,57,14.10
2014,04,12,15,58,14.10
2014,04,12,15,59,14.00
2014,04,12,16,00,14.00
2014,04,12,16,01,14.10
2014,04,12,16,02,14.10
2014,04,12,16,03,14.20
2014,04,12,16,04,14.20
2014,04,12,16,05,14.20
2014,04,12,16,06,14.20
2014,04,12,16,07,14.20
2014,04,12,16,08,14.20
2014,04,12,16,09,14.30
2014,04,12,16,10,14.40
2014,04,12,16,11,14.50
2014,04,12,16,12,14.50
2014,04,12,16,13,14.70
2014,04,12,16,14,14.80
2014,04,12,16,15,14.80
2014,04,12,16,16,14.80
2014,04,12,16,17,14.80
2014,04,12,16,18,14.90
2014,04,12,16,19,14.90
2014,04,12,16,20,15.00
2014,04,12,16,21,15.10
2014,04,12,16,22,15.20
2014,04,12,16,23,15.30
2014,04,12,16,24,15.20
2014,04,12,16,25,15.10
2014,04,12,16,26,15.10
2014,04,12,16,27,14.90
2014,04,12,16,28,14.90
2014,04,12,16,29,14.80
2014,04,12,16,30,14.80
2014,04,12,16,31,14.70
2014,04,12,16,32,14.70
2014,04,12,16,33,14.70
2014,04,12,16,34,14.70
2014,04,12,16,35,14.70
2014,04,12,16,36,14.80
2014,04,12,16,37,14.80
2014,04,12,16,38,14.90
2014,04,12,16,39,15.00
2014,04,12,16,40,15.00
2014,04,12,16,41,15.10
2014,04,12,16,42,15.10
2014,04,12,16,43,15.10
2014,04,12,16,44,15.10
2014,04,12,16,45,15.10
2014,04,12,16,46,15.20
2014,04,12,16,47,15.20
2014,04,12,16,48,15.20
2014,04,12,16,49,15.20
2014,04,12,16,50,15.10
2014,04,12,16,51,15.00
2014,04,12,16,52,15.00
2014,04,12,16,53,15.00
2014,04,12,16,54,14.90
2014,04,12,16,55,14.90
2014,04,12,16,56,14.90
2014,04,12,16,57,14.90
2014,04,12,16,58,14.90
2014,04,12,16,59,14.80
2014,04,12,17,00,14.90
2014,04,12,17,01,14.80
2014,04,12,17,02,14.80
2014,04,12,17,03,14.90
2014,04,12,17,04,14.90
2014,04,12,17,05,14.80
2014,04,12,17,06,14.80
2014,04,12,17,07,14.80
2014,04,12,17,08,14.80
2014,04,12,17,09,14.80
2014,04,12,17,10,14.80
2014,04,12,17,11,14.90
2014,04,12,17,12,15.00
2014,04,12,17,13,15.10
2014,04,12,17,14,15.10
2014,04,12,17,15,15.20
2014,04,12,17,16,15.10
2014,04,12,17,17,15.10
2014,04,12,17,18,15.10
2014,04,12,17,19,15.20
2014,04,12,17,20,15.20
2014,04,12,17,21,15.20
2014,04,12,17,22,15.20
2014,04,12,17,23,15.20
2014,04,12,17,24,15.10
2014,04,12,17,25,15.10
2014,04,12,17,26,15.10
2014,04,12,17,27,15.10
2014,04,12,17,28,15.10
2014,04,12,17,29,15.10
2014,04,12,17,30,15.10
2014,04,12,17,31,15.10
2014,04,12,17,32,15.00
2014,04,12,17,33,15.00
2014,04,12,17,34,14.90
2014,04,12,17,35,14.90
2014,04,12,17,36,14.90
2014,04,12,17,37,15.00
2014,04,12,17,38,15.10
2014,04,12,17,39,15.10
2014,04,12,17,40,15.10
2014,04,12,17,41,15.00
2014,04,12,17,42,14.90
2014,04,12,17,43,14.80
2014,04,12,17,44,14.80
2014,04,12,17,45,14.90